Memphis, TN

5:36 PM CDT on May 24, 2017 (GMT -0500)
Memphis International

Weather History for KMEM - February, 2014

Change the Weather History Date:

Tuesday, February 25, 2014

  Actual Average Record
Temperature  
Mean Temperature 46 °F 48 °F  
Max Temperature 55 °F 58 °F 80 °F (1918)
Min Temperature 37 °F 39 °F 14 °F (1965)
Degree Days  
Heating Degree Days 19 17  
Month to date heating degree days 581 499  
Since 1 July heating degree days 2742 2401  
Cooling Degree Days 0 0  
Month to date cooling degree days 0 0  
Year to date cooling degree days 0 1  
Moisture  
Dew Point 26 °F    
Average Humidity 46    
Maximum Humidity 65    
Minimum Humidity 27    
Precipitation  
Precipitation 0.08 in 0.16 in 2.26 in (1948)
Month to date precipitation 4.90 3.90  
Year to date precipitation 8.06 7.88  
Snow  
Snow 0.00 in 0.00 in 3.00 in (1894)
Month to date snowfall 0.3 1.2  
Since 1 July snowfall 0.3 3.3  
Snow Depth 0.00 in    
Sea Level Pressure  
Sea Level Pressure 30.13 in    
Wind  
Wind Speed 10 mph (NNE)    
Max Wind Speed 22 mph    
Max Gust Speed 28 mph    
Visibility 10 miles    
Events Rain    
T = Trace of Precipitation, MM = Missing Value Source: NWS Daily Summary

Daily Weather History Graph

Daily Weather History Graph

Search for Another Location

Airport or City:

Trip Planner

Search our weather history database for the weather conditions in past years. The results will help you decide how hot, cold, wet, or windy it might be!

Date:

Astronomy

Feb. 25, 2014 Rise Set
Actual Time 6:34 AM CST 5:52 PM CST
Civil Twilight 6:08 AM CST 6:17 PM CST
Nautical Twilight 5:39 AM CST 6:46 PM CST
Astronomical Twilight 5:10 AM CST 7:16 PM CST
Moon 3:22 AM CST (2/25) 2:03 PM CST (2/25)
Length of Visible Light 12h 08m
Length of Day
11h 17m
Waning Crescent, 18% of the Moon is Illuminated
Feb 25
Waning Crescent
Mar 1
New
Mar 8
First Quarter
Mar 16
Full
Mar 23
Last Quarter

Hourly Weather History & Observations

Time (CST) Temp. Windchill Dew Point Humidity Pressure Visibility Wind Dir Wind Speed Gust Speed Precip Events Conditions
12:54 AM 45.0 °F 40.1 °F 21.0 °F 39% 30.12 in 10.0 mi NNE 9.2 mph - N/A   Overcast
1:26 AM 44.6 °F 38.8 °F 21.2 °F 39% 30.13 in 10.0 mi NNE 11.5 mph - N/A   Overcast
1:46 AM 42.8 °F 37.5 °F 23.0 °F 46% 30.13 in 10.0 mi NE 9.2 mph - N/A   Overcast
1:54 AM 43.0 °F 38.2 °F 23.0 °F 45% 30.14 in 10.0 mi NNE 8.1 mph - N/A   Overcast
2:40 AM 39.2 °F 37.0 °F 30.2 °F 70% 30.13 in 10.0 mi East 3.5 mph - 0.01 in Rain Light Rain
2:54 AM 39.9 °F 35.8 °F 30.0 °F 68% 30.13 in 10.0 mi ENE 5.8 mph - 0.01 in Rain Light Rain
3:08 AM 39.2 °F 34.2 °F 30.2 °F 70% 30.13 in 10.0 mi ENE 6.9 mph - 0.00 in Rain Light Rain
3:54 AM 42.1 °F 38.4 °F 28.9 °F 60% 30.14 in 10.0 mi Variable 5.8 mph - 0.00 in   Overcast
4:54 AM 41.0 °F 35.8 °F 30.0 °F 65% 30.14 in 10.0 mi NNE 8.1 mph - N/A   Overcast
5:37 AM 39.2 °F 35.0 °F 28.4 °F 65% 30.14 in 10.0 mi NE 5.8 mph - N/A   Overcast
5:54 AM 39.9 °F 36.7 °F 28.9 °F 65% 30.15 in 10.0 mi NE 4.6 mph - N/A   Overcast
6:54 AM 39.9 °F 35.8 °F 28.0 °F 63% 30.16 in 10.0 mi NE 5.8 mph - N/A   Mostly Cloudy
7:54 AM 41.0 °F 37.1 °F 27.0 °F 57% 30.18 in 10.0 mi NNE 5.8 mph - N/A   Mostly Cloudy
8:54 AM 43.0 °F 41.3 °F 27.0 °F 53% 30.18 in 10.0 mi Variable 3.5 mph - N/A   Mostly Cloudy
9:54 AM 46.9 °F - 27.0 °F 46% 30.18 in 10.0 mi Calm Calm - N/A   Partly Cloudy
10:54 AM 51.1 °F - 25.0 °F 36% 30.17 in 10.0 mi NNE 8.1 mph - N/A   Partly Cloudy
11:54 AM 52.0 °F - 25.0 °F 35% 30.16 in 10.0 mi North 9.2 mph 17.3 mph N/A   Partly Cloudy
12:54 PM 54.0 °F - 24.1 °F 31% 30.13 in 10.0 mi NE 6.9 mph - N/A   Clear
1:54 PM 54.0 °F - 23.0 °F 30% 30.09 in 10.0 mi NNE 8.1 mph - N/A   Partly Cloudy
2:54 PM 55.0 °F - 23.0 °F 29% 30.09 in 10.0 mi NE 9.2 mph - N/A   Clear
3:54 PM 53.1 °F - 23.0 °F 31% 30.08 in 10.0 mi NNE 6.9 mph 17.3 mph N/A   Partly Cloudy
4:54 PM 50.0 °F - 21.9 °F 33% 30.09 in 10.0 mi North 15.0 mph - N/A   Scattered Clouds
5:54 PM 46.9 °F - 21.9 °F 37% 30.09 in 10.0 mi NNE 15.0 mph - N/A   Scattered Clouds
6:54 PM 45.0 °F 37.9 °F 21.0 °F 39% 30.11 in 10.0 mi NNE 16.1 mph - 0.00 in   Overcast
7:54 PM 41.0 °F 32.5 °F 27.0 °F 57% 30.12 in 10.0 mi NNE 17.3 mph - 0.00 in Rain Light Rain
8:54 PM 39.0 °F 31.0 °F 27.0 °F 62% 30.12 in 10.0 mi NNE 13.8 mph - 0.07 in   Overcast
9:54 PM 39.0 °F 30.3 °F 27.0 °F 62% 30.15 in 10.0 mi NNE 16.1 mph - 0.00 in   Overcast
10:54 PM 37.9 °F 30.0 °F 27.0 °F 65% 30.12 in 10.0 mi NNE 12.7 mph - N/A   Overcast
11:54 PM 37.0 °F 27.0 °F 24.1 °F 59% 30.14 in 10.0 mi NE 18.4 mph 24.2 mph N/A   Overcast